Moab, UT

7:39 PM MST on November 19, 2019 (GMT -0700)
Canyonlands

Weather History for KCNY - May, 2019

Change the Weather History Date:

Wednesday, May 22, 2019

  Actual Average Record
Temperature  
Mean Temperature 50 °F 65 °F  
Max Temperature 56 °F 81 °F 96 °F (2012)
Min Temperature 44 °F 49 °F 37 °F (1930)
Degree Days  
Heating Degree Days 15 3  
Month to date heating degree days 177 115  
Since 1 July heating degree days 5747 5540  
Cooling Degree Days 0 2  
Month to date cooling degree days 12 27  
Year to date cooling degree days 14 30  
Moisture  
Dew Point 42 °F    
Average Humidity 70    
Maximum Humidity 93    
Minimum Humidity 47    
Precipitation  
Precipitation 0.16 in 0.01 in 0.20 in (1933)
Month to date precipitation 0.28 0.44  
Year to date precipitation 5.27 3.06  
Sea Level Pressure  
Sea Level Pressure 29.64 in    
Wind  
Wind Speed 6 mph (ESE)    
Max Wind Speed 28 mph    
Max Gust Speed 34 mph    
Visibility 9 miles    
Events Rain , Thunderstorm    
T = Trace of Precipitation, MM = Missing Value Source: NWS Daily Summary

Daily Weather History Graph

Daily Weather History Graph

Search for Another Location

Airport or City:

Astronomy

May. 22, 2019 Rise Set
Actual Time 6:01 AM MDT 8:30 PM MDT
Civil Twilight 5:30 AM MDT 9:00 PM MDT
Nautical Twilight 4:53 AM MDT 9:38 PM MDT
Astronomical Twilight 4:11 AM MDT 10:21 PM MDT
Moon No Moon Rise 9:12 AM MDT (5/22)
Length of Visible Light 15h 29m
Length of Day
14h 28m
Waning Gibbous, 84% of the Moon is Illuminated
May 22
Waning Gibbous
May 26
Last Quarter
Jun 3
New
Jun 10
First Quarter
Jun 17
Full

Hourly Weather History & Observations

Time (MDT) Temp. Windchill Dew Point Humidity Pressure Visibility Wind Dir Wind Speed Gust Speed Precip Events Conditions
12:53 AM 45.0 °F 40.1 °F 39.9 °F 82% 29.52 in 10.0 mi SE 9.2 mph - N/A   Overcast
1:53 AM 45.0 °F 42.6 °F 41.0 °F 86% 29.52 in 10.0 mi ESE 4.6 mph - 0.01 in   Overcast
2:53 AM 45.0 °F 42.6 °F 41.0 °F 86% 29.52 in 10.0 mi ESE 4.6 mph - N/A   Overcast
3:53 AM 45.0 °F 41.8 °F 39.9 °F 82% 29.55 in 10.0 mi SE 5.8 mph - N/A   Overcast
4:53 AM 44.1 °F 41.5 °F 39.0 °F 82% 29.56 in 10.0 mi ESE 4.6 mph - N/A   Overcast
5:53 AM 45.0 °F - 39.9 °F 82% 29.55 in 10.0 mi Calm Calm - N/A   Overcast
6:53 AM 45.0 °F 43.5 °F 39.9 °F 82% 29.56 in 10.0 mi ESE 3.5 mph - N/A   Overcast
7:53 AM 46.9 °F - 39.0 °F 74% 29.58 in 10.0 mi ESE 4.6 mph - N/A   Overcast
8:53 AM 48.9 °F - 37.9 °F 66% 29.60 in 10.0 mi ESE 11.5 mph - N/A   Overcast
9:53 AM 52.0 °F - 37.9 °F 59% 29.59 in 10.0 mi ESE 11.5 mph 18.4 mph N/A   Overcast
10:53 AM 52.0 °F - 37.0 °F 57% 29.60 in 10.0 mi South 17.3 mph - 0.00 in   Overcast
11:53 AM 55.0 °F - 36.0 °F 49% 29.61 in 10.0 mi SE 17.3 mph - 0.00 in   Clear
12:53 PM 54.0 °F - 35.1 °F 49% 29.61 in 10.0 mi Calm Calm - N/A   Overcast
1:53 PM 50.0 °F - 42.1 °F 74% 29.65 in 10.0 mi West 8.1 mph - 0.03 in   Mostly Cloudy
2:53 PM 54.0 °F - 41.0 °F 62% 29.63 in 10.0 mi NE 10.4 mph - N/A   Scattered Clouds
3:03 PM 46.9 °F - 43.0 °F 86% 29.71 in 5.0 mi SE 12.7 mph 26.5 mph 0.03 in Rain , Thunderstorm Heavy Rain
3:19 PM 46.9 °F - 46.9 °F 100% 29.71 in 5.0 mi SE 9.2 mph - 0.05 in Rain Light Rain
3:53 PM 50.0 °F - 44.1 °F 80% 29.67 in 10.0 mi NNE 4.6 mph - 0.05 in   Overcast
4:53 PM 53.1 °F - 44.1 °F 71% 29.65 in 10.0 mi NW 8.1 mph - 0.00 in   Partly Cloudy
5:53 PM 50.0 °F - 46.0 °F 86% 29.68 in 2.5 mi SE 16.1 mph 29.9 mph 0.04 in Rain , Thunderstorm Light Rain
6:03 PM 48.9 °F - 46.9 °F 93% 29.72 in 5.0 mi ENE 5.8 mph 20.7 mph 0.02 in Rain , Thunderstorm Rain
6:12 PM 48.9 °F - 46.9 °F 93% 29.73 in 7.0 mi Variable 3.5 mph - 0.02 in Rain Light Rain
6:53 PM 48.0 °F - 43.0 °F 83% 29.70 in 10.0 mi NNE 6.9 mph - 0.03 in Rain Light Rain
7:53 PM 48.0 °F - 44.1 °F 86% 29.70 in 10.0 mi NE 4.6 mph - 0.00 in   Overcast
8:53 PM 48.0 °F - 45.0 °F 89% 29.73 in 10.0 mi Calm Calm - N/A   Mostly Cloudy
9:53 PM 46.9 °F - 45.0 °F 93% 29.72 in 10.0 mi ESE 3.5 mph - 0.00 in   Scattered Clouds
10:53 PM 46.9 °F - 45.0 °F 93% 29.73 in 10.0 mi South 3.5 mph - 0.00 in   Overcast
11:53 PM 46.9 °F - 45.0 °F 93% 29.70 in 10.0 mi WNW 3.5 mph - N/A   Overcast